[[{"header":{"parameterUnit":"m.s-1","parameterCategory":2,"la1":30.2991,"la2":30.254,"lo1":-89.0895,"lo2":-89.0444,"dy":0.0017,"dx":0.0017,"nx":28,"ny":28,"refTime":"2024-08-10T15:00:00:Z","depth":"0","parameterNumber":2,"parameterNumberName":"U-component_of_CURRENTS"},"data":[0,0,0,0,0,0,0,0,0,0,0,0,0,0,0,0,0,0,0,0,0,0,0,0,0,0,0,0,0,0,0,0,0,0,0,0,0,0,0,0,0,0,0,0,0,0,0,0,0,0,0,0,0,0,0,0,0,0,-0.1038,-0.1038,0,-0.1064,-0.1065,-0.1065,-0.1093,-0.1093,-0.1094,-0.1094,-0.108,-0.108,-0.1079,0,0,0,0,0,0,0,0,0,0,0,0,0,-0.1008,-0.1008,-0.1038,-0.1038,-0.1038,-0.1064,-0.1065,-0.1065,-0.1093,-0.1093,-0.1094,-0.1094,-0.1081,-0.108,-0.1079,0,0,0,0,0,0,0,0,0,0,0,0,0,-0.1026,-0.1008,-0.1038,-0.1056,-0.1058,-0.1064,-0.1065,-0.1065,-0.1093,-0.1093,-0.1094,-0.1094,-0.1081,-0.108,-0.1079,-0.1059,0,0,-0.1075,-0.1075,0,0,0,0,0,0,0,0,-0.1025,-0.1027,-0.1053,-0.1054,-0.1057,-0.1076,-0.1049,-0.1061,-0.1092,-0.1079,-0.1094,-0.1095,-0.1075,-0.1074,-0.1078,-0.1058,-0.1058,-0.1075,-0.1074,-0.1074,-0.1073,0,0,0,0,0,0,0,-0.1023,-0.1026,-0.1048,-0.1053,-0.1055,-0.1061,-0.1064,-0.1051,-0.1072,-0.108,-0.1082,-0.1086,-0.1076,-0.1079,-0.1078,-0.1057,-0.1075,-0.1074,-0.1073,-0.1073,-0.1022,-0.1021,0,0,0,0,0,0,-0.102,-0.1025,-0.1047,-0.1049,-0.1042,-0.1061,-0.1065,-0.1069,-0.1073,-0.1075,-0.1085,-0.1087,-0.1081,-0.1079,-0.1077,-0.105,-0.1074,-0.1073,-0.1072,-0.1022,-0.1022,-0.1021,0,0,0,0,0,0,-0.1019,-0.1022,-0.1046,-0.1037,-0.1041,-0.1061,-0.1065,-0.1069,-0.1071,-0.1077,-0.1078,-0.1083,-0.1081,-0.1079,-0.1065,-0.105,-0.1072,-0.1071,-0.1023,-0.1022,-0.1021,-0.0998,0,0,0,0,0,0,-0.1019,-0.1022,-0.1026,-0.1037,-0.1041,-0.1049,-0.1065,-0.1069,-0.1073,-0.1075,-0.1076,-0.1076,-0.1081,-0.1067,-0.1064,-0.1049,-0.107,-0.1024,-0.1023,-0.1022,-0.1,-0.0996,-0.0993,0,0,0,0,0,-0.1017,-0.1024,-0.1026,-0.1028,-0.1046,-0.1049,-0.1051,-0.1068,-0.1072,-0.1071,-0.1071,-0.1076,-0.1057,-0.1065,-0.1062,-0.1046,-0.1025,-0.1023,-0.1022,-0.1001,-0.0997,-0.0994,0,0,0,0,0,0,-0.1011,-0.1028,-0.103,-0.1041,-0.1042,-0.1054,-0.1059,-0.1061,-0.1062,-0.1062,-0.1066,-0.1065,-0.1049,-0.1048,-0.1057,-0.1028,-0.1041,-0.1039,-0.1027,-0.1023,-0.102,-0.1036,-0.1069,0,0,0,0,0,-0.101,-0.1023,-0.1028,-0.1036,-0.1035,-0.1042,-0.1046,-0.1051,-0.1053,-0.1054,-0.1051,-0.1046,-0.104,-0.1032,-0.1028,-0.1006,-0.1024,-0.0994,-0.0991,-0.0989,-0.1,-0.1031,-0.1032,-0.1016,-0.1016,-0.1016,0,0,-0.1005,-0.102,-0.1024,-0.1036,-0.1039,-0.1034,-0.1046,-0.1048,-0.1043,-0.105,-0.1039,-0.1035,-0.1033,-0.1017,-0.1008,-0.1013,-0.0995,-0.0987,-0.0985,-0.0998,-0.1029,-0.1031,-0.1033,-0.1015,-0.1015,-0.1015,0,0,-0.1004,-0.1016,-0.1022,-0.1021,-0.1026,-0.103,-0.1026,-0.1027,-0.1029,-0.1015,-0.102,-0.1012,-0.0994,-0.0995,-0.0992,-0.0967,-0.0981,-0.0955,-0.0948,-0.0977,-0.098,-0.0982,-0.0978,-0.0981,-0.0949,-0.0949,-0.0949,0,-0.1,-0.1002,-0.1021,-0.102,-0.1014,-0.1024,-0.101,-0.1015,-0.101,-0.1007,-0.101,-0.0995,-0.0989,-0.0979,-0.097,-0.0962,-0.0972,-0.0962,-0.0975,-0.0978,-0.0981,-0.0977,-0.098,-0.0948,-0.0948,-0.0948,-0.0948,0,-0.0995,-0.0991,-0.0992,-0.0996,-0.0994,-0.0984,-0.0986,-0.0983,-0.0982,-0.0986,-0.0976,-0.0974,-0.0971,-0.0957,-0.0955,-0.0959,-0.0956,-0.0972,-0.0989,-0.0982,-0.0977,-0.0981,-0.0946,-0.0947,-0.0947,-0.0947,0,0,-0.0993,-0.0989,-0.0986,-0.0973,-0.0974,-0.0968,-0.0965,-0.096,-0.0965,-0.0959,-0.0963,-0.0946,-0.0953,-0.0951,-0.0945,-0.0962,-0.0974,-0.0971,-0.0973,-0.0974,-0.1018,-0.1,-0.1001,-0.0997,-0.0998,-0.0999,-0.0997,0,-0.0976,-0.0961,-0.0965,-0.0938,-0.0923,-0.0928,-0.0924,-0.0926,-0.094,-0.0951,-0.0956,-0.0962,-0.0949,-0.095,-0.0963,-0.0985,-0.0987,-0.0972,-0.102,-0.1021,-0.1012,-0.1007,-0.1001,-0.0998,-0.1,-0.1001,-0.1001,0,-0.0956,-0.0953,-0.0919,-0.0901,-0.0895,-0.0885,-0.0885,-0.0885,-0.0914,-0.0929,-0.0945,-0.0962,-0.0975,-0.0978,-0.1006,-0.0999,-0.1003,-0.1016,-0.1016,-0.1017,-0.1011,-0.1011,-0.1004,-0.0895,-0.1007,-0.1007,-0.1006,0,-0.0928,-0.0911,-0.0881,-0.0873,-0.0864,-0.0852,-0.0852,-0.0873,-0.0891,-0.0927,-0.0957,-0.0972,-0.0997,-0.1015,-0.1021,-0.1027,-0.1056,-0.1071,-0.105,-0.1047,-0.1061,-0.1058,-0.0967,-0.1092,-0.1092,-0.1092,-0.1093,0,-0.0893,-0.0867,-0.0866,-0.0847,-0.0829,-0.0828,-0.0829,-0.0841,-0.0883,-0.0919,-0.0946,-0.0986,-0.1016,-0.1033,-0.1032,-0.1042,-0.1062,-0.1052,-0.1054,-0.1047,-0.1043,-0.0966,-0.09,-0.1092,-0.1092,-0.1092,-0.1092,0,-0.0843,-0.084,-0.081,-0.0804,-0.081,-0.0792,-0.0823,-0.0841,-0.0878,-0.0935,-0.0952,-0.1011,-0.103,-0.1025,-0.1055,-0.106,-0.1033,-0.1056,-0.1023,-0.1023,-0.0926,-0.0859,-0.0898,-0.0878,-0.1059,-0.1059,-0.1059,0,-0.0808,-0.0792,-0.0785,-0.0784,-0.0778,-0.0777,-0.0794,-0.0833,-0.0873,-0.0953,-0.0987,-0.102,-0.1041,-0.1051,-0.106,-0.1041,-0.0988,-0.103,-0.1049,-0.0916,-0.0844,-0.0894,-0.0878,-0.1043,-0.1043,-0.1042,-0.1042,0,-0.0758,-0.0756,-0.0734,-0.0737,-0.0746,-0.0766,-0.0798,-0.0835,-0.0897,-0.0942,-0.1003,-0.1022,-0.1052,-0.1048,-0.1022,-0.1019,-0.0981,-0.1025,-0.0912,-0.0841,-0.087,-0.0852,-0.1018,-0.1039,-0.104,-0.104,-0.104,-0.104,-0.0728,-0.07,-0.0687,-0.0679,-0.0701,-0.0738,-0.0734,-0.0794,-0.0836,-0.0875,-0.0962,-0.0944,-0.1006,-0.0986,-0.0959,-0.0904,-0.0953,-0.0883,-0.0816,-0.0884,-0.0856,-0.0995,-0.1006,-0.1006,-0.1006,-0.1007,-0.1007,0,-0.0699,-0.0668,-0.0647,-0.0632,-0.0637,-0.0671,-0.0724,-0.0711,-0.0732,-0.0779,-0.0803,-0.0826,-0.0822,-0.0821,-0.0818,-0.0716,-0.0766,-0.0636,-0.0678,-0.0674,-0.0809,-0.0794,-0.073,-0.073,-0.073,-0.073,-0.073,-0.0731,-0.0687,-0.0641,-0.0612,-0.0573,-0.0573,-0.0567,-0.0583,-0.0572,-0.0579,-0.0556,-0.0549,-0.0571,-0.057,-0.0535,-0.0444,-0.0448,-0.0399,-0.0423,-0.0376,-0.0394,-0.0412,-0.0429,-0.0399,-0.0254,-0.0253,-0.0323,-0.0322,-0.0321]},{"header":{"parameterUnit":"m.s-1","parameterCategory":2,"la1":30.2991,"la2":30.254,"lo1":-89.0895,"lo2":-89.0444,"dy":0.0017,"dx":0.0017,"nx":28,"ny":28,"refTime":"2024-08-10T15:00:00:Z","depth":"0","parameterNumber":3,"parameterNumberName":"V-component_of_CURRENTS"},"data":[0,0,0,0,0,0,0,0,0,0,0,0,0,0,0,0,0,0,0,0,0,0,0,0,0,0,0,0,0,0,0,0,0,0,0,0,0,0,0,0,0,0,0,0,0,0,0,0,0,0,0,0,0,0,0,0,0,0,-0.1383,-0.1383,0,-0.1447,-0.1448,-0.1449,-0.1514,-0.1515,-0.1515,-0.1516,-0.1507,-0.1506,-0.1505,0,0,0,0,0,0,0,0,0,0,0,0,0,-0.135,-0.1351,-0.1383,-0.1383,-0.1384,-0.1446,-0.1448,-0.1449,-0.1514,-0.1515,-0.1516,-0.1516,-0.1507,-0.1506,-0.1505,0,0,0,0,0,0,0,0,0,0,0,0,0,-0.1387,-0.1351,-0.1383,-0.1421,-0.1425,-0.1446,-0.1448,-0.1449,-0.1514,-0.1515,-0.1516,-0.1517,-0.1507,-0.1506,-0.1505,-0.148,0,0,-0.1502,-0.1501,0,0,0,0,0,0,0,0,-0.1385,-0.1389,-0.1415,-0.1419,-0.1423,-0.147,-0.1433,-0.1455,-0.1514,-0.1484,-0.1516,-0.1517,-0.1485,-0.1486,-0.1502,-0.148,-0.148,-0.1501,-0.1501,-0.15,-0.15,0,0,0,0,0,0,0,-0.1383,-0.1387,-0.1412,-0.1416,-0.142,-0.1446,-0.1453,-0.1438,-0.148,-0.1487,-0.1491,-0.1492,-0.1487,-0.1503,-0.1502,-0.1479,-0.1501,-0.15,-0.15,-0.1499,-0.1491,-0.1492,0,0,0,0,0,0,-0.1365,-0.1384,-0.141,-0.1413,-0.1402,-0.1446,-0.1453,-0.1457,-0.1482,-0.1486,-0.1491,-0.1495,-0.1504,-0.1503,-0.1501,-0.1513,-0.15,-0.1499,-0.1498,-0.1491,-0.1491,-0.1492,0,0,0,0,0,0,-0.1364,-0.1367,-0.1407,-0.1397,-0.1404,-0.1445,-0.1449,-0.1458,-0.1471,-0.1486,-0.1489,-0.1495,-0.1505,-0.1503,-0.1521,-0.1511,-0.1499,-0.1498,-0.149,-0.1491,-0.1492,-0.151,0,0,0,0,0,0,-0.1363,-0.1366,-0.1362,-0.1396,-0.1404,-0.1416,-0.1448,-0.1458,-0.1469,-0.1474,-0.1489,-0.149,-0.1506,-0.1523,-0.152,-0.151,-0.1497,-0.149,-0.1491,-0.1491,-0.1509,-0.1511,-0.1513,0,0,0,0,0,-0.1362,-0.1346,-0.1362,-0.1364,-0.1397,-0.1415,-0.1421,-0.1456,-0.1468,-0.1472,-0.1508,-0.149,-0.1526,-0.1523,-0.1519,-0.1508,-0.1489,-0.149,-0.1491,-0.1508,-0.1511,-0.1513,0,0,0,0,0,0,-0.1335,-0.1352,-0.137,-0.1362,-0.1386,-0.1424,-0.1424,-0.1446,-0.1476,-0.1482,-0.1501,-0.1505,-0.1517,-0.151,-0.1506,-0.151,-0.1501,-0.1501,-0.1514,-0.1517,-0.1519,-0.1499,-0.1496,0,0,0,0,0,-0.1324,-0.1317,-0.1346,-0.1342,-0.1348,-0.1384,-0.1394,-0.1419,-0.1449,-0.1463,-0.1479,-0.1496,-0.1516,-0.1517,-0.1529,-0.1523,-0.15,-0.1512,-0.1514,-0.1516,-0.1499,-0.1472,-0.147,-0.1496,-0.1496,-0.1496,0,0,-0.132,-0.1321,-0.1324,-0.1336,-0.1356,-0.137,-0.1393,-0.1404,-0.1426,-0.1452,-0.148,-0.1501,-0.152,-0.1538,-0.1538,-0.1529,-0.1501,-0.1518,-0.1519,-0.15,-0.1473,-0.147,-0.1468,-0.1496,-0.1496,-0.1496,0,0,-0.1298,-0.1302,-0.1291,-0.1308,-0.1325,-0.1348,-0.1346,-0.1381,-0.1406,-0.1436,-0.147,-0.1492,-0.1507,-0.1532,-0.1544,-0.1556,-0.1518,-0.155,-0.1538,-0.1513,-0.151,-0.1507,-0.1486,-0.1481,-0.1546,-0.1546,-0.1546,0,-0.1293,-0.1285,-0.1293,-0.1292,-0.1304,-0.1335,-0.1342,-0.1371,-0.1414,-0.1429,-0.1443,-0.149,-0.1506,-0.1533,-0.1553,-0.1558,-0.1536,-0.1528,-0.1514,-0.1511,-0.1507,-0.1486,-0.148,-0.1547,-0.1547,-0.1547,-0.1547,0,-0.1281,-0.1272,-0.1264,-0.1277,-0.1291,-0.1298,-0.1337,-0.1358,-0.1384,-0.1413,-0.1442,-0.1482,-0.1504,-0.1516,-0.1542,-0.1531,-0.1522,-0.1524,-0.1504,-0.1505,-0.1484,-0.1478,-0.1548,-0.1548,-0.1548,-0.1547,0,0,-0.1264,-0.1259,-0.1256,-0.126,-0.1284,-0.1297,-0.1325,-0.1358,-0.1373,-0.1411,-0.1426,-0.1478,-0.1484,-0.1498,-0.1523,-0.151,-0.1486,-0.1504,-0.1502,-0.1476,-0.1425,-0.1462,-0.1458,-0.148,-0.1479,-0.1478,-0.1423,0,-0.1253,-0.1246,-0.1247,-0.1252,-0.1254,-0.1289,-0.1316,-0.1352,-0.1376,-0.1397,-0.1431,-0.1449,-0.1481,-0.1487,-0.1484,-0.1486,-0.1467,-0.15,-0.1431,-0.1429,-0.1456,-0.1451,-0.1432,-0.1385,-0.1417,-0.1416,-0.1415,0,-0.1239,-0.1231,-0.1235,-0.1241,-0.1246,-0.1263,-0.13,-0.1325,-0.1361,-0.1377,-0.1393,-0.1409,-0.1418,-0.1433,-0.1418,-0.1434,-0.1423,-0.142,-0.1418,-0.1435,-0.1454,-0.1387,-0.1372,-0.122,-0.1405,-0.1406,-0.1406,0,-0.1228,-0.1218,-0.122,-0.1229,-0.1249,-0.1263,-0.1282,-0.132,-0.1336,-0.1349,-0.1348,-0.1361,-0.1361,-0.1349,-0.1365,-0.1374,-0.1335,-0.1347,-0.1367,-0.137,-0.133,-0.1332,-0.1151,-0.1309,-0.1309,-0.131,-0.131,0,-0.1213,-0.1205,-0.1216,-0.1223,-0.123,-0.1251,-0.1263,-0.1287,-0.1306,-0.1313,-0.1327,-0.133,-0.1333,-0.1326,-0.1335,-0.1338,-0.1308,-0.1354,-0.1354,-0.134,-0.1343,-0.1192,-0.1095,-0.1308,-0.1308,-0.1308,-0.1309,0,-0.1193,-0.1201,-0.1199,-0.1219,-0.1224,-0.1234,-0.1254,-0.1263,-0.1276,-0.1279,-0.1276,-0.1289,-0.1282,-0.1294,-0.1274,-0.13,-0.1205,-0.1303,-0.1295,-0.1296,-0.1193,-0.11,-0.0888,-0.0811,-0.1307,-0.1307,-0.1308,0,-0.1173,-0.1175,-0.1199,-0.12,-0.1204,-0.1216,-0.1231,-0.1253,-0.1259,-0.1263,-0.1265,-0.1254,-0.1275,-0.1276,-0.1304,-0.1315,-0.118,-0.1286,-0.131,-0.117,-0.1064,-0.0975,-0.0919,-0.1261,-0.1261,-0.1261,-0.1261,0,-0.1131,-0.1154,-0.1161,-0.118,-0.119,-0.1197,-0.1212,-0.1213,-0.1234,-0.1238,-0.1249,-0.1261,-0.1288,-0.132,-0.1337,-0.1324,-0.1133,-0.129,-0.1125,-0.0993,-0.0896,-0.083,-0.1315,-0.1261,-0.1261,-0.1261,-0.1261,-0.1261,-0.1092,-0.1097,-0.1127,-0.1141,-0.1159,-0.117,-0.1171,-0.1184,-0.1194,-0.1204,-0.1245,-0.1286,-0.1326,-0.1373,-0.1313,-0.1164,-0.1137,-0.1104,-0.0997,-0.0916,-0.0845,-0.1344,-0.1314,-0.1314,-0.1314,-0.1314,-0.1315,0,-0.1031,-0.1059,-0.1079,-0.1104,-0.1127,-0.1146,-0.1153,-0.1151,-0.1152,-0.1207,-0.1244,-0.1348,-0.1303,-0.1244,-0.1118,-0.0923,-0.0811,-0.0762,-0.0589,-0.0547,-0.0974,-0.0977,-0.0894,-0.0894,-0.0894,-0.0895,-0.0895,-0.0895,-0.0994,-0.1008,-0.1036,-0.1063,-0.1087,-0.1099,-0.1097,-0.1095,-0.1129,-0.1194,-0.1287,-0.138,-0.1257,-0.0913,-0.0588,-0.0518,-0.0267,-0.0227,-0.0121,-0.0375,-0.0398,-0.0419,-0.0399,-0.0197,-0.0196,0.0284,0.0289,0.0292]}],[{"header":{"parameterUnit":"m.s-1","parameterCategory":2,"la1":30.2991,"la2":30.254,"lo1":-89.0895,"lo2":-89.0444,"dy":0.0017,"dx":0.0017,"nx":28,"ny":28,"refTime":"2024-08-10T15:00:00:Z","depth":"2","parameterNumber":2,"parameterNumberName":"U-component_of_CURRENTS"},"data":[0,0,0,0,0,0,0,0,0,0,0,0,0,0,0,0,0,0,0,0,0,0,0,0,0,0,0,0,0,0,0,0,0,0,0,0,0,0,0,0,0,0,0,0,0,0,0,0,0,0,0,0,0,0,0,0,0,0,-0.2671,-0.2671,0,-0.2672,-0.2672,-0.2672,-0.2687,-0.2688,-0.2688,-0.2689,-0.2604,-0.2601,-0.2598,0,0,0,0,0,0,0,0,0,0,0,0,0,-0.2652,-0.2652,-0.2671,-0.2671,-0.2671,-0.2672,-0.2672,-0.2672,-0.2687,-0.2688,-0.2689,-0.2689,-0.2605,-0.2602,-0.2598,0,0,0,0,0,0,0,0,0,0,0,0,0,-0.2655,-0.2652,-0.2671,-0.2681,-0.2682,-0.2672,-0.2672,-0.2672,-0.2687,-0.2688,-0.2689,-0.269,-0.2606,-0.2602,-0.2598,-0.2554,0,0,-0.2585,-0.2583,0,0,0,0,0,0,0,0,-0.2655,-0.2656,-0.2679,-0.268,-0.2681,-0.2683,-0.2635,-0.2629,-0.2687,-0.2683,-0.2689,-0.269,-0.2623,-0.2617,-0.2614,-0.255,-0.2547,-0.2585,-0.2582,-0.258,-0.2579,0,0,0,0,0,0,0,-0.2655,-0.2656,-0.2669,-0.2679,-0.2681,-0.2675,-0.2677,-0.2634,-0.2644,-0.2683,-0.2685,-0.2688,-0.2623,-0.2618,-0.2612,-0.2545,-0.2585,-0.2581,-0.2578,-0.2577,-0.2393,-0.2391,0,0,0,0,0,0,-0.266,-0.2655,-0.2669,-0.267,-0.2673,-0.2675,-0.2677,-0.2679,-0.2647,-0.2644,-0.2687,-0.2689,-0.2625,-0.2617,-0.2609,-0.2531,-0.258,-0.2576,-0.2574,-0.2395,-0.2392,-0.239,0,0,0,0,0,0,-0.2659,-0.2661,-0.2669,-0.2664,-0.2665,-0.2675,-0.2678,-0.2679,-0.2667,-0.2652,-0.2647,-0.2674,-0.2625,-0.2615,-0.2553,-0.2529,-0.2574,-0.2571,-0.2398,-0.2394,-0.2391,-0.2391,0,0,0,0,0,0,-0.2659,-0.2661,-0.2648,-0.2665,-0.2666,-0.2653,-0.2677,-0.2678,-0.2669,-0.2671,-0.2638,-0.2632,-0.2625,-0.2559,-0.2548,-0.2524,-0.2567,-0.2401,-0.2396,-0.2392,-0.2394,-0.2388,-0.2382,0,0,0,0,0,-0.2658,-0.2647,-0.2647,-0.2648,-0.2653,-0.2652,-0.2651,-0.266,-0.2668,-0.2653,-0.2626,-0.2632,-0.2524,-0.2553,-0.2542,-0.2516,-0.2403,-0.2398,-0.2393,-0.2396,-0.2389,-0.2382,0,0,0,0,0,0,-0.2638,-0.2648,-0.2649,-0.2642,-0.264,-0.2656,-0.2639,-0.2649,-0.2618,-0.2613,-0.2601,-0.2591,-0.2532,-0.251,-0.2543,-0.2445,-0.2464,-0.2456,-0.247,-0.2463,-0.2458,-0.2459,-0.2564,0,0,0,0,0,-0.2625,-0.261,-0.2627,-0.2613,-0.2612,-0.262,-0.2615,-0.2624,-0.2611,-0.26,-0.2579,-0.2542,-0.25,-0.2472,-0.2436,-0.2374,-0.2344,-0.2346,-0.2341,-0.2337,-0.2326,-0.2268,-0.2257,-0.2372,-0.2373,-0.2373,0,0,-0.2609,-0.2614,-0.2603,-0.2605,-0.2602,-0.2592,-0.2618,-0.2609,-0.259,-0.259,-0.2541,-0.2521,-0.2479,-0.2423,-0.2392,-0.2401,-0.2282,-0.233,-0.2327,-0.2318,-0.2262,-0.2251,-0.2241,-0.2369,-0.237,-0.237,0,0,-0.2584,-0.2576,-0.2562,-0.2555,-0.2554,-0.2558,-0.2553,-0.2558,-0.2546,-0.25,-0.2498,-0.2456,-0.2393,-0.2365,-0.234,-0.2269,-0.2258,-0.2259,-0.2229,-0.2173,-0.2164,-0.2156,-0.2089,-0.2074,-0.2253,-0.2253,-0.2253,0,-0.2567,-0.2551,-0.2555,-0.2544,-0.2527,-0.254,-0.2521,-0.2508,-0.249,-0.2465,-0.2477,-0.2387,-0.2362,-0.2291,-0.2277,-0.2258,-0.2225,-0.2269,-0.2169,-0.216,-0.2152,-0.2085,-0.2069,-0.2252,-0.2252,-0.2252,-0.2252,0,-0.254,-0.2517,-0.2505,-0.2489,-0.2473,-0.2453,-0.2447,-0.2423,-0.2411,-0.2402,-0.2335,-0.2307,-0.2258,-0.2243,-0.2241,-0.2167,-0.2161,-0.2178,-0.2198,-0.2141,-0.2073,-0.2057,-0.2251,-0.2251,-0.2252,-0.2252,0,0,-0.2514,-0.2493,-0.2481,-0.2462,-0.2438,-0.2428,-0.2381,-0.2345,-0.2321,-0.2288,-0.224,-0.2182,-0.2189,-0.216,-0.2156,-0.2109,-0.2026,-0.2122,-0.212,-0.2074,-0.1892,-0.1856,-0.1835,-0.2038,-0.2036,-0.2033,-0.1865,0,-0.2483,-0.2458,-0.2446,-0.2394,-0.2374,-0.2354,-0.2315,-0.2282,-0.2259,-0.2217,-0.2174,-0.2135,-0.2151,-0.2142,-0.2093,-0.2054,-0.1985,-0.2069,-0.1936,-0.1931,-0.1923,-0.1816,-0.1674,-0.1509,-0.1849,-0.1846,-0.1844,0,-0.2442,-0.2433,-0.2392,-0.2348,-0.2336,-0.2308,-0.2249,-0.2218,-0.2163,-0.2147,-0.2103,-0.2093,-0.2021,-0.2051,-0.1926,-0.1985,-0.1927,-0.189,-0.1883,-0.1839,-0.1865,-0.162,-0.1467,-0.1817,-0.1819,-0.1821,-0.1823,0,-0.2412,-0.2376,-0.2342,-0.2325,-0.2293,-0.2258,-0.2233,-0.2188,-0.2145,-0.2107,-0.2077,-0.2018,-0.1971,-0.1905,-0.1844,-0.1881,-0.1703,-0.1741,-0.1637,-0.1634,-0.1478,-0.1466,-0.162,-0.162,-0.162,-0.1621,-0.1621,0,-0.2368,-0.2328,-0.2328,-0.2306,-0.2246,-0.224,-0.2171,-0.2149,-0.2104,-0.2034,-0.2044,-0.1971,-0.1934,-0.1845,-0.18,-0.1658,-0.1658,-0.1594,-0.1575,-0.1471,-0.1461,-0.1713,-0.1727,-0.1614,-0.1616,-0.1617,-0.1618,0,-0.2302,-0.2315,-0.2263,-0.2242,-0.2224,-0.2176,-0.211,-0.2067,-0.2057,-0.1965,-0.1948,-0.1896,-0.1791,-0.1744,-0.1621,-0.1578,-0.1473,-0.1421,-0.1301,-0.1272,-0.1448,-0.1463,-0.1268,-0.1265,-0.1263,-0.126,-0.1259,0,-0.2255,-0.223,-0.2197,-0.2161,-0.2137,-0.2079,-0.2027,-0.2019,-0.1971,-0.1896,-0.1833,-0.1744,-0.1637,-0.1463,-0.1399,-0.1287,-0.1354,-0.1079,-0.1121,-0.1403,-0.1406,-0.1425,-0.1442,-0.0897,-0.0892,-0.0888,-0.0885,0,-0.2132,-0.2127,-0.209,-0.2037,-0.1984,-0.1936,-0.1875,-0.1833,-0.1808,-0.1759,-0.1649,-0.1568,-0.1416,-0.1245,-0.114,-0.1048,-0.1101,-0.1,-0.1271,-0.104,-0.1048,-0.1054,-0.1083,-0.0852,-0.0855,-0.0858,-0.086,-0.0861,-0.2003,-0.1956,-0.1919,-0.1849,-0.1818,-0.1774,-0.17,-0.1665,-0.1589,-0.1479,-0.1469,-0.133,-0.1209,-0.1016,-0.0893,-0.0807,-0.0894,-0.0803,-0.0816,-0.0832,-0.0852,-0.0858,-0.0628,-0.063,-0.0631,-0.0633,-0.0634,0,-0.1815,-0.178,-0.1724,-0.1659,-0.1605,-0.1635,-0.1567,-0.1495,-0.1382,-0.1325,-0.1231,-0.1023,-0.0869,-0.0788,-0.0627,-0.0549,-0.0548,-0.0473,-0.0484,-0.0514,-0.0541,-0.055,-0.0244,-0.0243,-0.0243,-0.0243,0,0,-0.1709,-0.1605,-0.1592,-0.1452,-0.1422,-0.1331,-0.1286,-0.1207,-0.1157,-0.1004,-0.0934,-0.0931,-0.0844,-0.0647,-0.0495,-0.0377,-0.0461,-0.0319,-0.062,-0.0669,-0.0699,-0.0695,-0.0737,0,0,0,0,0]},{"header":{"parameterUnit":"m.s-1","parameterCategory":2,"la1":30.2991,"la2":30.254,"lo1":-89.0895,"lo2":-89.0444,"dy":0.0017,"dx":0.0017,"nx":28,"ny":28,"refTime":"2024-08-10T15:00:00:Z","depth":"2","parameterNumber":3,"parameterNumberName":"V-component_of_CURRENTS"},"data":[0,0,0,0,0,0,0,0,0,0,0,0,0,0,0,0,0,0,0,0,0,0,0,0,0,0,0,0,0,0,0,0,0,0,0,0,0,0,0,0,0,0,0,0,0,0,0,0,0,0,0,0,0,0,0,0,0,0,0.0586,0.0588,0,0.0777,0.0779,0.0781,0.0843,0.0843,0.0842,0.0841,0.088,0.0882,0.0884,0,0,0,0,0,0,0,0,0,0,0,0,0,0.053,0.0529,0.0586,0.0588,0.059,0.0776,0.0779,0.0782,0.0844,0.0842,0.0841,0.084,0.0879,0.0882,0.0884,0,0,0,0,0,0,0,0,0,0,0,0,0,0.0621,0.0529,0.0585,0.0643,0.065,0.0776,0.0779,0.0782,0.0844,0.0842,0.0841,0.084,0.0879,0.0881,0.0884,0.093,0,0,0.0893,0.0894,0,0,0,0,0,0,0,0,0.0616,0.0623,0.0632,0.0639,0.0647,0.0784,0.0774,0.0824,0.0844,0.0771,0.0841,0.0839,0.0834,0.0841,0.0883,0.0932,0.0933,0.0893,0.0895,0.0896,0.0897,0,0,0,0,0,0,0,0.0609,0.0617,0.0662,0.0635,0.0644,0.0747,0.0756,0.0786,0.0806,0.0777,0.0782,0.0802,0.0837,0.0881,0.0884,0.0934,0.0893,0.0896,0.0898,0.0899,0.0992,0.0993,0,0,0,0,0,0,0.0571,0.0609,0.0656,0.0668,0.0627,0.0748,0.0758,0.0742,0.0809,0.0819,0.0803,0.0805,0.0876,0.0881,0.0885,0.0875,0.0896,0.0899,0.0901,0.0991,0.0992,0.0993,0,0,0,0,0,0,0.0569,0.0572,0.0648,0.0645,0.0661,0.0748,0.0731,0.0747,0.0752,0.083,0.0837,0.0787,0.0875,0.0881,0.091,0.0879,0.09,0.0903,0.099,0.0992,0.0993,0.0896,0,0,0,0,0,0,0.0566,0.0569,0.0534,0.064,0.066,0.0688,0.0733,0.0751,0.0768,0.077,0.0819,0.0825,0.0875,0.0906,0.0913,0.0883,0.0905,0.0989,0.0991,0.0992,0.0898,0.0894,0.089,0,0,0,0,0,0.0562,0.0524,0.053,0.0536,0.061,0.0687,0.0705,0.0767,0.0768,0.0765,0.0819,0.0821,0.0919,0.0909,0.0917,0.0887,0.0989,0.0991,0.0992,0.09,0.0895,0.089,0,0,0,0,0,0,0.0497,0.053,0.0539,0.0513,0.0576,0.0695,0.0694,0.0738,0.0784,0.0765,0.0836,0.0847,0.0859,0.0897,0.0884,0.0925,0.0952,0.0955,0.0879,0.0874,0.087,0.0837,0.0907,0,0,0,0,0,0.046,0.0423,0.0501,0.0478,0.0491,0.0581,0.0612,0.0653,0.0718,0.0735,0.0778,0.0827,0.0884,0.0893,0.0942,0.0959,0.0986,0.0948,0.0944,0.094,0.0923,0.0995,0.0995,0.0999,0.0999,0.0999,0,0,0.0434,0.0444,0.0427,0.046,0.0502,0.0537,0.0594,0.0618,0.0653,0.0729,0.0754,0.0804,0.0887,0.092,0.0927,0.0937,0.0943,0.0942,0.0937,0.0922,0.0997,0.0996,0.0995,0.1,0.1,0.0999,0,0,0.0385,0.0358,0.0322,0.036,0.0403,0.0469,0.0459,0.0545,0.0573,0.0617,0.069,0.0732,0.0791,0.087,0.0914,0.0917,0.092,0.0908,0.0852,0.0922,0.0921,0.0921,0.09,0.0899,0.0903,0.0903,0.0903,0,0.0356,0.0319,0.0333,0.0329,0.036,0.0425,0.0436,0.0489,0.0579,0.0606,0.0596,0.0728,0.0779,0.0868,0.0865,0.0902,0.0907,0.0857,0.0913,0.0914,0.0916,0.0895,0.0895,0.0899,0.0899,0.09,0.09,0,0.0308,0.0278,0.0261,0.0269,0.0303,0.0316,0.0394,0.0415,0.0441,0.051,0.0561,0.0651,0.0726,0.075,0.0799,0.0844,0.0826,0.0897,0.0914,0.0909,0.0887,0.0889,0.0892,0.0894,0.0895,0.0896,0,0,0.026,0.0231,0.0226,0.0221,0.0268,0.0302,0.0332,0.0406,0.0429,0.0479,0.052,0.0611,0.0631,0.0684,0.0752,0.0804,0.0801,0.0825,0.0831,0.0779,0.0871,0.0811,0.0807,0.0872,0.0873,0.0874,0.083,0,0.0228,0.0193,0.02,0.0201,0.0198,0.0257,0.0294,0.036,0.0407,0.0456,0.0537,0.0586,0.0618,0.0629,0.0687,0.0796,0.0809,0.08,0.0905,0.0906,0.0837,0.0811,0.0903,0.0869,0.0832,0.0832,0.0833,0,0.019,0.0172,0.0144,0.0161,0.0165,0.0178,0.0239,0.028,0.0367,0.0395,0.0444,0.0501,0.0573,0.06,0.0724,0.0707,0.075,0.0822,0.0824,0.0805,0.0852,0.0884,0.0874,0.0836,0.0836,0.0836,0.0836,0,0.0158,0.0143,0.0112,0.0119,0.0148,0.0144,0.0169,0.0245,0.0279,0.0337,0.0353,0.0448,0.0483,0.0577,0.0663,0.0692,0.0782,0.0868,0.0844,0.0838,0.0955,0.0958,0.0929,0.0929,0.0929,0.0929,0.0929,0,0.0129,0.0109,0.0079,0.0066,0.0051,0.0083,0.0085,0.013,0.0185,0.0226,0.0292,0.034,0.0479,0.0545,0.0631,0.0704,0.075,0.0803,0.0833,0.0917,0.0916,0.0943,0.0945,0.0927,0.0928,0.0928,0.0928,0,0.0096,0.0072,0.0039,0.0029,0.0022,0.0005,0.0017,0.0034,0.0078,0.0127,0.013,0.0249,0.032,0.042,0.0571,0.0651,0.0746,0.0752,0.0776,0.0808,0.0754,0.0753,0.0743,0.0741,0.0739,0.0737,0.0736,0,0.0073,0.0041,-0.0002,-0.0031,-0.0052,-0.0075,-0.0078,-0.0034,-0.0005,0.0088,0.012,0.0173,0.0235,0.0375,0.0536,0.0628,0.0641,0.074,0.084,0.071,0.0741,0.0742,0.0742,0.094,0.0941,0.0941,0.0941,0,0.0044,0.0011,-0.0017,-0.0084,-0.0121,-0.0133,-0.0137,-0.0118,-0.0047,-0.0001,0.0083,0.0124,0.0254,0.0436,0.0518,0.0602,0.0738,0.0746,0.066,0.0955,0.0889,0.0921,0.0917,0.0945,0.0944,0.0944,0.0944,0.0944,0.0022,-0.0011,-0.0067,-0.0123,-0.0166,-0.018,-0.0173,-0.0147,-0.0101,-0.0009,0.0048,0.0201,0.0341,0.056,0.0579,0.0667,0.0718,0.0814,0.0818,0.082,0.0833,0.0766,0.0795,0.0794,0.0793,0.0792,0.0792,0,0.0016,-0.0034,-0.0095,-0.0152,-0.0186,-0.0217,-0.0193,-0.0156,-0.0099,-0.0007,0.0053,0.0301,0.0488,0.0604,0.0794,0.0821,0.0845,0.0779,0.0876,0.0877,0.0877,0.0894,0.0872,0.0871,0.0869,0.0868,0,0,0.0009,-0.0044,-0.0079,-0.0149,-0.0201,-0.0214,-0.0199,-0.0154,-0.0062,0.0021,0.02,0.0361,0.0604,0.072,0.0758,0.0833,0.0795,0.0795,0.0758,0.0868,0.0864,0.096,0.0996,0,0,0,0,0]}],[{"header":{"parameterUnit":"m.s-1","parameterCategory":2,"la1":30.2991,"la2":30.254,"lo1":-89.0895,"lo2":-89.0444,"dy":0.0017,"dx":0.0017,"nx":28,"ny":28,"refTime":"2024-08-10T15:00:00:Z","depth":"4","parameterNumber":2,"parameterNumberName":"U-component_of_CURRENTS"},"data":[0,0,0,0,0,0,0,0,0,0,0,0,0,0,0,0,0,0,0,0,0,0,0,0,0,0,0,0,0,0,0,0,0,0,0,0,0,0,0,0,0,0,0,0,0,0,0,0,0,0,0,0,0,0,0,0,0,0,-0.087,-0.087,0,-0.0945,-0.0946,-0.0948,-0.1004,-0.1004,-0.1003,-0.1003,-0.1095,-0.1098,-0.11,0,0,0,0,0,0,0,0,0,0,0,0,0,-0.0817,-0.0818,-0.087,-0.087,-0.087,-0.0944,-0.0946,-0.0948,-0.1004,-0.1004,-0.1003,-0.1003,-0.1094,-0.1097,-0.1101,0,0,0,0,0,0,0,0,0,0,0,0,0,-0.0868,-0.0819,-0.087,-0.0901,-0.0904,-0.0944,-0.0946,-0.0948,-0.1004,-0.1004,-0.1003,-0.1003,-0.1093,-0.1097,-0.1101,-0.1131,0,0,-0.1113,-0.1115,0,0,0,0,0,0,0,0,-0.0865,-0.0871,-0.0896,-0.0899,-0.0902,-0.0958,-0.0961,-0.1008,-0.1004,-0.0974,-0.1003,-0.1003,-0.1046,-0.1054,-0.1079,-0.1136,-0.114,-0.1113,-0.1116,-0.1118,-0.1119,0,0,0,0,0,0,0,-0.0862,-0.0868,-0.0907,-0.0896,-0.09,-0.0926,-0.0933,-0.0971,-0.1017,-0.0977,-0.0979,-0.0975,-0.1049,-0.1075,-0.1082,-0.1141,-0.1113,-0.1117,-0.1119,-0.1121,-0.1257,-0.1259,0,0,0,0,0,0,-0.0835,-0.0865,-0.0905,-0.0909,-0.0874,-0.0926,-0.0935,-0.0947,-0.1017,-0.1025,-0.0975,-0.0977,-0.1069,-0.1077,-0.1085,-0.115,-0.1118,-0.1121,-0.1124,-0.1256,-0.1258,-0.1259,0,0,0,0,0,0,-0.0834,-0.0839,-0.0902,-0.0881,-0.089,-0.0926,-0.094,-0.0948,-0.0982,-0.1014,-0.1024,-0.1,-0.1069,-0.108,-0.1132,-0.1152,-0.1123,-0.1127,-0.1255,-0.1257,-0.1258,-0.1263,0,0,0,0,0,0,-0.0833,-0.0838,-0.0861,-0.088,-0.089,-0.0929,-0.094,-0.095,-0.0976,-0.098,-0.1038,-0.1046,-0.107,-0.1126,-0.1136,-0.1157,-0.113,-0.1253,-0.1256,-0.1258,-0.1261,-0.1265,-0.1268,0,0,0,0,0,-0.0831,-0.0838,-0.0862,-0.0868,-0.0913,-0.0929,-0.0939,-0.0967,-0.0977,-0.0998,-0.1039,-0.1045,-0.1148,-0.113,-0.1142,-0.1165,-0.1252,-0.1255,-0.1258,-0.126,-0.1264,-0.1268,0,0,0,0,0,0,-0.0825,-0.0845,-0.0871,-0.0887,-0.0913,-0.0936,-0.0958,-0.0972,-0.1023,-0.1037,-0.1065,-0.1076,-0.1127,-0.1149,-0.1128,-0.1212,-0.12,-0.1205,-0.1197,-0.1202,-0.1205,-0.1212,-0.1133,0,0,0,0,0,-0.0835,-0.0845,-0.0874,-0.0886,-0.0907,-0.094,-0.0957,-0.0977,-0.1008,-0.1032,-0.107,-0.1114,-0.1148,-0.1175,-0.1213,-0.1263,-0.1252,-0.1285,-0.1288,-0.1291,-0.1305,-0.131,-0.1314,-0.1268,-0.1268,-0.1268,0,0,-0.0831,-0.0843,-0.085,-0.0886,-0.0918,-0.0941,-0.0953,-0.0981,-0.1002,-0.1033,-0.1093,-0.1128,-0.1163,-0.1217,-0.1242,-0.1238,-0.1291,-0.1294,-0.1296,-0.131,-0.1313,-0.1317,-0.1321,-0.127,-0.127,-0.127,0,0,-0.0815,-0.0852,-0.0863,-0.0887,-0.0927,-0.0949,-0.0955,-0.1,-0.1035,-0.1089,-0.1111,-0.1145,-0.1224,-0.1238,-0.1256,-0.1297,-0.1304,-0.1332,-0.1362,-0.1365,-0.1369,-0.1372,-0.1327,-0.1326,-0.1338,-0.1338,-0.1338,0,-0.0821,-0.0837,-0.0868,-0.0889,-0.0907,-0.0948,-0.097,-0.1007,-0.1061,-0.1097,-0.111,-0.1211,-0.1222,-0.1269,-0.1293,-0.13,-0.1312,-0.1339,-0.1368,-0.1371,-0.1374,-0.1328,-0.1327,-0.1339,-0.1339,-0.1339,-0.1339,0,-0.0808,-0.0839,-0.0846,-0.0888,-0.0916,-0.0937,-0.0985,-0.1026,-0.1071,-0.1115,-0.1192,-0.1224,-0.128,-0.1291,-0.1312,-0.1354,-0.1355,-0.1362,-0.1351,-0.1378,-0.1328,-0.1326,-0.1339,-0.1339,-0.1339,-0.1339,0,0,-0.0782,-0.0831,-0.0838,-0.0868,-0.0921,-0.0939,-0.0982,-0.1042,-0.1071,-0.1155,-0.1196,-0.1266,-0.131,-0.1333,-0.1359,-0.1377,-0.1375,-0.1405,-0.1405,-0.1349,-0.138,-0.1238,-0.1222,-0.1418,-0.1419,-0.1419,-0.1321,0,-0.0776,-0.0798,-0.083,-0.0867,-0.0893,-0.0946,-0.0976,-0.1037,-0.1096,-0.1147,-0.1211,-0.1266,-0.1319,-0.1347,-0.138,-0.1389,-0.1382,-0.14,-0.1374,-0.1372,-0.1233,-0.122,-0.1422,-0.132,-0.132,-0.132,-0.1319,0,-0.0763,-0.078,-0.0808,-0.0866,-0.0886,-0.0912,-0.0974,-0.1012,-0.1092,-0.115,-0.1236,-0.1284,-0.1342,-0.1358,-0.1402,-0.1435,-0.1415,-0.1407,-0.1403,-0.1275,-0.1229,-0.1299,-0.1317,-0.1317,-0.1317,-0.1317,-0.1318,0,-0.0719,-0.0772,-0.079,-0.0808,-0.0871,-0.0904,-0.0945,-0.102,-0.1065,-0.1153,-0.1181,-0.1284,-0.1312,-0.1352,-0.1358,-0.14,-0.1366,-0.1392,-0.123,-0.1218,-0.1374,-0.1372,-0.1383,-0.1383,-0.1383,-0.1384,-0.1384,0,-0.0689,-0.0712,-0.0774,-0.0785,-0.0815,-0.0881,-0.093,-0.0982,-0.1057,-0.1078,-0.1189,-0.1197,-0.1327,-0.1325,-0.134,-0.1271,-0.1342,-0.1224,-0.1188,-0.1372,-0.1372,-0.1369,-0.1369,-0.138,-0.1381,-0.1381,-0.1382,0,-0.0636,-0.0673,-0.0704,-0.0773,-0.0796,-0.0822,-0.0918,-0.0943,-0.1025,-0.1036,-0.1062,-0.1156,-0.1146,-0.1198,-0.1212,-0.1204,-0.1159,-0.1099,-0.1249,-0.1225,-0.1013,-0.1014,-0.0923,-0.0918,-0.0913,-0.0909,-0.0905,0,-0.061,-0.0618,-0.0681,-0.0689,-0.0725,-0.0781,-0.0807,-0.092,-0.0932,-0.0974,-0.0947,-0.0971,-0.1002,-0.0924,-0.0998,-0.0971,-0.0967,-0.0943,-0.1034,-0.0993,-0.0968,-0.0978,-0.0986,-0.0898,-0.0896,-0.0895,-0.0894,0,-0.0564,-0.0588,-0.0603,-0.0613,-0.0647,-0.0674,-0.0712,-0.0733,-0.0806,-0.0872,-0.0822,-0.0818,-0.0778,-0.0824,-0.0795,-0.0786,-0.0979,-0.0893,-0.0905,-0.0991,-0.0961,-0.0943,-0.0957,-0.0877,-0.088,-0.0881,-0.0882,0,-0.0533,-0.0523,-0.0534,-0.0541,-0.0548,-0.0535,-0.0599,-0.0602,-0.0645,-0.0695,-0.066,-0.0676,-0.0737,-0.0716,-0.0685,-0.067,-0.0684,-0.0707,-0.0729,-0.0748,-0.0741,-0.0681,-0.0467,0,0,0,0,0,-0.0496,-0.0471,-0.046,-0.0448,-0.0434,-0.044,-0.0495,-0.056,-0.0627,-0.0559,-0.0619,-0.0563,-0.0543,-0.0578,-0.0528,-0.0596,-0.0683,-0.0535,-0.072,-0.0784,-0.0803,-0.0815,0,0,0,0,0,0,-0.0471,-0.0454,-0.0436,-0.0346,-0.0309,-0.0295,-0.0335,-0.0393,-0.0381,-0.0451,-0.0459,-0.0493,-0.0502,-0.0533,-0.0497,-0.0501,-0.0601,-0.0555,-0.0552,-0.0773,-0.0791,-0.0806,-0.0825,0,0,0,0,0]},{"header":{"parameterUnit":"m.s-1","parameterCategory":2,"la1":30.2991,"la2":30.254,"lo1":-89.0895,"lo2":-89.0444,"dy":0.0017,"dx":0.0017,"nx":28,"ny":28,"refTime":"2024-08-10T15:00:00:Z","depth":"4","parameterNumber":3,"parameterNumberName":"V-component_of_CURRENTS"},"data":[0,0,0,0,0,0,0,0,0,0,0,0,0,0,0,0,0,0,0,0,0,0,0,0,0,0,0,0,0,0,0,0,0,0,0,0,0,0,0,0,0,0,0,0,0,0,0,0,0,0,0,0,0,0,0,0,0,0,-0.0146,-0.0146,0,-0.0146,-0.0146,-0.0146,-0.0103,-0.0102,-0.0101,-0.01,-0.0068,-0.0068,-0.0068,0,0,0,0,0,0,0,0,0,0,0,0,0,-0.0081,-0.0082,-0.0146,-0.0146,-0.0147,-0.0146,-0.0146,-0.0146,-0.0103,-0.0102,-0.0101,-0.01,-0.0068,-0.0068,-0.0068,0,0,0,0,0,0,0,0,0,0,0,0,0,-0.0096,-0.0083,-0.0146,-0.0127,-0.0125,-0.0146,-0.0146,-0.0146,-0.0103,-0.0102,-0.01,-0.0099,-0.0068,-0.0068,-0.0068,-0.0096,0,0,-0.0068,-0.0068,0,0,0,0,0,0,0,0,-0.0095,-0.0098,-0.0129,-0.0128,-0.0126,-0.0125,-0.0111,-0.0128,-0.0104,-0.0109,-0.01,-0.0098,-0.0087,-0.0085,-0.0085,-0.0095,-0.0093,-0.0068,-0.0068,-0.0068,-0.0068,0,0,0,0,0,0,0,-0.0094,-0.0098,-0.0144,-0.013,-0.0128,-0.0108,-0.0109,-0.0114,-0.0104,-0.0109,-0.0106,-0.011,-0.0085,-0.0086,-0.0084,-0.0093,-0.0068,-0.0068,-0.0068,-0.0068,-0.0116,-0.0117,0,0,0,0,0,0,-0.0102,-0.0097,-0.0144,-0.0144,-0.0109,-0.0111,-0.0112,-0.0125,-0.0104,-0.01,-0.0111,-0.0108,-0.0086,-0.0084,-0.0083,-0.0115,-0.0068,-0.0068,-0.0068,-0.0115,-0.0116,-0.0117,0,0,0,0,0,0,-0.0101,-0.0107,-0.0144,-0.0121,-0.0125,-0.0114,-0.0129,-0.0126,-0.0125,-0.0107,-0.0102,-0.0113,-0.0085,-0.0083,-0.0091,-0.0114,-0.0068,-0.0068,-0.0113,-0.0115,-0.0117,-0.018,0,0,0,0,0,0,-0.0099,-0.0106,-0.0118,-0.0123,-0.0127,-0.0166,-0.0131,-0.0127,-0.013,-0.0126,-0.0108,-0.0103,-0.0084,-0.0091,-0.0091,-0.0113,-0.0068,-0.0111,-0.0114,-0.0116,-0.0176,-0.0184,-0.019,0,0,0,0,0,-0.0097,-0.0126,-0.0119,-0.0125,-0.0144,-0.0167,-0.0168,-0.0153,-0.0132,-0.0144,-0.0126,-0.0103,-0.0106,-0.0093,-0.0092,-0.0114,-0.011,-0.0113,-0.0116,-0.0173,-0.0182,-0.019,0,0,0,0,0,0,-0.0103,-0.0125,-0.0117,-0.0151,-0.016,-0.0161,-0.0171,-0.0161,-0.0157,-0.0148,-0.0122,-0.0118,-0.0133,-0.0119,-0.0105,-0.0135,-0.0104,-0.0107,-0.0148,-0.0156,-0.0163,-0.0159,-0.0068,0,0,0,0,0,-0.0112,-0.0141,-0.015,-0.0177,-0.0183,-0.0177,-0.0183,-0.0176,-0.0174,-0.017,-0.016,-0.0148,-0.0147,-0.0146,-0.0145,-0.0166,-0.0123,-0.0179,-0.0186,-0.0192,-0.0189,-0.0152,-0.0155,-0.0127,-0.0127,-0.0127,0,0,-0.0122,-0.0138,-0.0153,-0.0181,-0.0183,-0.0205,-0.0176,-0.0194,-0.0208,-0.0169,-0.0186,-0.0175,-0.0158,-0.0177,-0.0183,-0.0167,-0.0177,-0.0195,-0.0201,-0.0194,-0.0155,-0.0158,-0.016,-0.0129,-0.0128,-0.0128,0,0,-0.0155,-0.017,-0.0198,-0.0213,-0.0227,-0.023,-0.0238,-0.0245,-0.0241,-0.0263,-0.0233,-0.0243,-0.0243,-0.0239,-0.0235,-0.0284,-0.0215,-0.0275,-0.0307,-0.0272,-0.0273,-0.0274,-0.0214,-0.0209,-0.0278,-0.0278,-0.0278,0,-0.016,-0.02,-0.0209,-0.0237,-0.0255,-0.0244,-0.0274,-0.0276,-0.0286,-0.0288,-0.0277,-0.0282,-0.0278,-0.029,-0.0302,-0.0302,-0.0246,-0.0276,-0.0279,-0.0279,-0.0279,-0.0217,-0.0211,-0.0281,-0.0281,-0.0281,-0.028,0,-0.0209,-0.0239,-0.0259,-0.0292,-0.0315,-0.0342,-0.0349,-0.0366,-0.0364,-0.0359,-0.0374,-0.0369,-0.0369,-0.0373,-0.035,-0.0351,-0.0299,-0.0291,-0.0254,-0.0285,-0.0218,-0.0211,-0.0286,-0.0285,-0.0284,-0.0283,0,0,-0.0226,-0.028,-0.0287,-0.031,-0.0346,-0.0371,-0.0403,-0.0426,-0.0438,-0.0444,-0.0461,-0.0468,-0.0449,-0.0442,-0.042,-0.0392,-0.0351,-0.0334,-0.033,-0.0267,-0.0232,-0.0177,-0.0162,-0.0323,-0.0322,-0.0322,-0.0182,0,-0.0255,-0.0313,-0.034,-0.0399,-0.0426,-0.0444,-0.0475,-0.0494,-0.0499,-0.0514,-0.0501,-0.0509,-0.0477,-0.0478,-0.0446,-0.0377,-0.0333,-0.0387,-0.0217,-0.0212,-0.0154,-0.0154,-0.032,-0.0176,-0.0174,-0.0172,-0.0171,0,-0.0293,-0.0327,-0.0385,-0.0446,-0.0461,-0.05,-0.0549,-0.0573,-0.0584,-0.0585,-0.0583,-0.0561,-0.0539,-0.051,-0.0392,-0.0414,-0.0325,-0.0264,-0.0257,-0.0177,-0.0143,-0.0141,-0.0156,-0.0157,-0.0158,-0.016,-0.016,0,-0.0298,-0.0364,-0.0412,-0.0434,-0.0497,-0.0533,-0.0567,-0.0593,-0.0613,-0.0625,-0.063,-0.0596,-0.0577,-0.0476,-0.0356,-0.0359,-0.0204,-0.0203,-0.0066,-0.0059,-0.0121,-0.0122,-0.0109,-0.0109,-0.011,-0.011,-0.0111,0,-0.0325,-0.0368,-0.0418,-0.0448,-0.0509,-0.0547,-0.0604,-0.0631,-0.0659,-0.0664,-0.0657,-0.0639,-0.056,-0.0468,-0.0354,-0.0175,-0.0199,-0.0059,-0.0022,-0.0151,-0.0157,-0.0114,-0.0117,-0.0105,-0.0106,-0.0107,-0.0108,0,-0.0337,-0.0367,-0.0424,-0.0489,-0.0516,-0.0559,-0.0635,-0.0664,-0.0682,-0.0691,-0.0695,-0.0659,-0.0526,-0.0424,-0.026,-0.0166,-0.0017,0.0054,-0.0072,-0.0046,0.0109,0.0101,0.0222,0.0225,0.0227,0.023,0.0231,0,-0.035,-0.0378,-0.0447,-0.0482,-0.052,-0.0584,-0.0627,-0.0675,-0.0687,-0.0678,-0.0666,-0.058,-0.0525,-0.025,-0.0153,0.0061,0.0091,0.0167,0.0119,0.0118,0.0142,0.013,0.0119,0.0236,0.0236,0.0237,0.0238,0,-0.0372,-0.0393,-0.0436,-0.0492,-0.0547,-0.0607,-0.0656,-0.0664,-0.0684,-0.0701,-0.0604,-0.0497,-0.0348,-0.0197,-0.0039,0.0111,0.0106,0.0194,0.0189,0.0145,0.0136,0.0154,0.0141,0.0247,0.0245,0.0244,0.0244,0,-0.0384,-0.041,-0.045,-0.0502,-0.0564,-0.0601,-0.0637,-0.0626,-0.0637,-0.0605,-0.056,-0.0433,-0.0375,-0.0165,-0.0014,0.0126,0.0161,0.0201,0.0196,0.0187,0.0122,0.0101,0.0245,0,0,0,0,0,-0.0386,-0.041,-0.0458,-0.0511,-0.0567,-0.0597,-0.0641,-0.066,-0.0658,-0.0573,-0.0564,-0.0414,-0.0198,-0.0126,0.0033,0.0022,0.0166,0.0211,0.0204,0.0296,0.0286,0.0217,0,0,0,0,0,0,-0.0394,-0.043,-0.0447,-0.0495,-0.0529,-0.0589,-0.0612,-0.0619,-0.0559,-0.0537,-0.0422,-0.0364,-0.0163,-0.028,0.004,0.0077,0.0098,0.0302,0.0306,0.0302,0.0293,0.0284,0.021,0,0,0,0,0]}]]